owner,sensor,date,latitude,longitude,vertical_datum,wind_speed,wind_to_direction,wind_speed_of_gust,qcFlag 
TABS,ioos:station:wmo:42045:1,2011-04-01T00:00:00Z,26.2168,-96.4998,4.0,4.340529922,123.7270203,5.22,'11111222,11111222,11111222' 
TABS,ioos:station:wmo:42045:1,2011-04-01T00:30:00Z,26.2168,-96.4998,4.0,4.290477829,114.9527156,5.1,'11111222,11111222,11111222' 
TABS,ioos:station:wmo:42045:1,2011-04-01T01:00:00Z,26.2168,-96.4998,4.0,4.361765698,115.0966127,5.07,'11111222,11111222,11111222' 
TABS,ioos:station:wmo:42045:1,2011-04-01T01:30:00Z,26.2168,-96.4998,4.0,4.089498747,110.9171758,4.99,'11111222,11111222,11111222' 
TABS,ioos:station:wmo:42045:1,2011-04-01T02:00:00Z,26.2168,-96.4998,4.0,4.217771924,113.7697542,5.72,'11111222,11111222,11111222' 
TABS,ioos:station:wmo:42045:1,2011-04-01T02:30:00Z,26.2168,-96.4998,4.0,4.114608122,115.9426557,5.08,'11111222,11111222,11111222' 
TABS,ioos:station:wmo:42045:1,2011-04-01T03:00:00Z,26.2168,-96.4998,4.0,4.368626787,127.8408075,5.11,'11111222,11111222,11111222' 
TABS,ioos:station:wmo:42045:1,2011-04-01T03:30:00Z,26.2168,-96.4998,4.0,4.328013401,125.1225025,5.1,'11111222,11111222,11111222' 
TABS,ioos:station:wmo:42045:1,2011-04-01T04:00:00Z,26.2168,-96.4998,4.0,5.049722765,119.1541416,5.84,'11111222,11111222,11111222' 
TABS,ioos:station:wmo:42045:1,2011-04-01T04:30:00Z,26.2168,-96.4998,4.0,5.040486088,117.2771205,6.17,'11111222,11111222,11111222' 
TABS,ioos:station:wmo:42045:1,2011-04-01T05:00:00Z,26.2168,-96.4998,4.0,5.025236313,114.5764229,6.0,'11111222,11111222,11111222' 
TABS,ioos:station:wmo:42045:1,2011-04-01T05:30:00Z,26.2168,-96.4998,4.0,4.490545624,124.2920095,5.33,'11111222,11111222,11111222' 
TABS,ioos:station:wmo:42045:1,2011-04-01T06:00:00Z,26.2168,-96.4998,4.0,4.571061146,132.8726634,5.74,'11111222,11111222,11111222' 
TABS,ioos:station:wmo:42045:1,2011-04-01T06:30:00Z,26.2168,-96.4998,4.0,4.087297396,134.4055726,5.03,'11111222,11111222,11111222' 
TABS,ioos:station:wmo:42045:1,2011-04-01T07:00:00Z,26.2168,-96.4998,4.0,4.606831883,150.7644743,5.43,'11111222,11111222,11111222' 
TABS,ioos:station:wmo:42045:1,2011-04-01T07:30:00Z,26.2168,-96.4998,4.0,4.116114673,145.6925028,4.89,'11111222,11111222,11111222' 
TABS,ioos:station:wmo:42045:1,2011-04-01T08:00:00Z,26.2168,-96.4998,4.0,4.04499691,159.1458012,4.91,'11111222,11111222,11111222' 
TABS,ioos:station:wmo:42045:1,2011-04-01T08:30:00Z,26.2168,-96.4998,4.0,3.622430124,153.4352214,4.38,'11111222,11111222,11111222' 
TABS,ioos:station:wmo:42045:1,2011-04-01T09:00:00Z,26.2168,-96.4998,4.0,3.794153397,151.6790654,4.81,'11111222,11111222,11111222' 
TABS,ioos:station:wmo:42045:1,2011-04-01T09:30:00Z,26.2168,-96.4998,4.0,4.209714955,158.2493995,4.89,'11111222,11111222,11111222' 
TABS,ioos:station:wmo:42045:1,2011-04-01T10:00:00Z,26.2168,-96.4998,4.0,3.734501305,152.7490788,4.74,'11111222,11111222,11111222' 
TABS,ioos:station:wmo:42045:1,2011-04-01T10:30:00Z,26.2168,-96.4998,4.0,3.9982121,153.8838359,5.09,'11111222,11111222,11111222' 
TABS,ioos:station:wmo:42045:1,2011-04-01T11:00:00Z,26.2168,-96.4998,4.0,4.11447445,149.6335831,4.87,'11111222,11111222,11111222' 
TABS,ioos:station:wmo:42045:1,2011-04-01T11:30:00Z,26.2168,-96.4998,4.0,4.587853529,145.4789043,5.61,'11111222,11111222,11111222' 
TABS,ioos:station:wmo:42045:1,2011-04-01T12:00:00Z,26.2168,-96.4998,4.0,4.873243273,145.7884773,5.92,'11111222,11111222,11111222' 
TABS,ioos:station:wmo:42045:1,2011-04-01T12:30:00Z,26.2168,-96.4998,4.0,5.34394985,148.7791022,6.66,'11111222,11111222,11111222' 
TABS,ioos:station:wmo:42045:1,2011-04-01T13:00:00Z,26.2168,-96.4998,4.0,4.900255095,142.5457699,6.01,'11111222,11111222,11111222' 
TABS,ioos:station:wmo:42045:1,2011-04-01T13:30:00Z,26.2168,-96.4998,4.0,5.133897155,145.8768756,6.12,'11111222,11111222,11111222' 
TABS,ioos:station:wmo:42045:1,2011-04-01T14:00:00Z,26.2168,-96.4998,4.0,4.723272171,146.3102217,5.91,'11111222,11111222,11111222' 
TABS,ioos:station:wmo:42045:1,2011-04-01T14:30:00Z,26.2168,-96.4998,4.0,5.130155943,142.6836584,6.33,'11111222,11111222,11111222' 
TABS,ioos:station:wmo:42045:1,2011-04-01T15:00:00Z,26.2168,-96.4998,4.0,5.112582518,148.517593,6.07,'11111222,11111222,11111222' 
TABS,ioos:station:wmo:42045:1,2011-04-01T15:30:00Z,26.2168,-96.4998,4.0,4.682499333,152.9427208,5.67,'11111222,11111222,11111222' 
TABS,ioos:station:wmo:42045:1,2011-04-01T16:00:00Z,26.2168,-96.4998,4.0,5.090618823,164.2712942,6.18,'11111222,11111222,11111222' 
TABS,ioos:station:wmo:42045:1,2011-04-01T16:30:00Z,26.2168,-96.4998,4.0,4.971217155,164.4823052,5.93,'11111222,11111222,11111222' 
TABS,ioos:station:wmo:42045:1,2011-04-01T17:00:00Z,26.2168,-96.4998,4.0,5.517725981,169.7696894,6.75,'11111222,11111222,11111222' 
TABS,ioos:station:wmo:42045:1,2011-04-01T17:30:00Z,26.2168,-96.4998,4.0,5.986192446,175.785037,7.04,'11111222,11111222,11111222' 
TABS,ioos:station:wmo:42045:1,2011-04-01T18:00:00Z,26.2168,-96.4998,4.0,5.668730017,174.2292877,6.85,'11111222,11111222,11111222' 
TABS,ioos:station:wmo:42045:1,2011-04-01T18:30:00Z,26.2168,-96.4998,4.0,6.042598779,176.2996761,7.24,'11111222,11111222,11111222' 
TABS,ioos:station:wmo:42045:1,2011-04-01T19:00:00Z,26.2168,-96.4998,4.0,6.514798539,177.8009975,7.95,'11111222,11111222,11111222' 
TABS,ioos:station:wmo:42045:1,2011-04-01T19:30:00Z,26.2168,-96.4998,4.0,6.190476557,176.6663676,7.52,'11111222,11111222,11111222' 
TABS,ioos:station:wmo:42045:1,2011-04-01T20:00:00Z,26.2168,-96.4998,4.0,4.720021186,170.1188274,5.77,'11111222,11111222,11111222' 
TABS,ioos:station:wmo:42045:1,2011-04-01T20:30:00Z,26.2168,-96.4998,4.0,4.642467017,167.9399608,5.64,'11111222,11111222,11111222' 
TABS,ioos:station:wmo:42045:1,2011-04-01T21:00:00Z,26.2168,-96.4998,4.0,4.448752634,159.610025,5.48,'11111222,11111222,11111222' 
TABS,ioos:station:wmo:42045:1,2011-04-01T21:30:00Z,26.2168,-96.4998,4.0,4.414000453,153.4932717,5.39,'11111222,11111222,11111222' 
TABS,ioos:station:wmo:42045:1,2011-04-01T22:00:00Z,26.2168,-96.4998,4.0,4.534423888,149.0798665,5.85,'11111222,11111222,11111222' 
TABS,ioos:station:wmo:42045:1,2011-04-01T22:30:00Z,26.2168,-96.4998,4.0,4.610097613,142.7575476,5.77,'11111222,11111222,11111222' 
TABS,ioos:station:wmo:42045:1,2011-04-01T23:00:00Z,26.2168,-96.4998,4.0,4.332262688,141.2785291,5.2,'11111222,11111222,11111222' 
TABS,ioos:station:wmo:42045:1,2011-04-01T23:30:00Z,26.2168,-96.4998,4.0,4.624727019,142.1144495,5.22,'11111222,11111222,11111222' 
TABS,ioos:station:wmo:42045:1,2011-04-02T00:00:00Z,26.2168,-96.4998,4.0,5.188024672,143.3071005,6.12,'11111222,11111222,11111222' 
TABS,ioos:station:wmo:42045:1,2011-04-02T00:30:00Z,26.2168,-96.4998,4.0,6.093488328,146.6492452,7.07,'11111222,11111222,11111222' 
TABS,ioos:station:wmo:42045:1,2011-04-02T01:00:00Z,26.2168,-96.4998,4.0,6.778819956,146.9197269,7.81,'11111222,11111222,11111222' 
TABS,ioos:station:wmo:42045:1,2011-04-02T01:30:00Z,26.2168,-96.4998,4.0,6.364181016,143.562539,7.28,'11111222,11111222,11111222' 
TABS,ioos:station:wmo:42045:1,2011-04-02T02:00:00Z,26.2168,-96.4998,4.0,6.748192351,144.5909262,7.72,'11111222,11111222,11111222' 
TABS,ioos:station:wmo:42045:1,2011-04-02T02:30:00Z,26.2168,-96.4998,4.0,6.37621361,144.6401951,7.55,'11111222,11111222,11111222' 
TABS,ioos:station:wmo:42045:1,2011-04-02T03:00:00Z,26.2168,-96.4998,4.0,6.220972593,146.208045,7.29,'11111222,11111222,11111222' 
TABS,ioos:station:wmo:42045:1,2011-04-02T03:30:00Z,26.2168,-96.4998,4.0,6.279267473,146.5632927,7.24,'11111222,11111222,11111222' 
TABS,ioos:station:wmo:42045:1,2011-04-02T04:00:00Z,26.2168,-96.4998,4.0,6.306005075,143.0577119,7.43,'11111222,11111222,11111222' 
TABS,ioos:station:wmo:42045:1,2011-04-02T04:30:00Z,26.2168,-96.4998,4.0,5.832117969,147.8907662,7.08,'11111222,11111222,11111222' 
TABS,ioos:station:wmo:42045:1,2011-04-02T05:00:00Z,26.2168,-96.4998,4.0,4.673596046,153.9834884,5.65,'11111222,11111222,11111222' 
TABS,ioos:station:wmo:42045:1,2011-04-02T05:30:00Z,26.2168,-96.4998,4.0,4.298802159,162.9563164,4.89,'11111222,11111222,11111222' 
TABS,ioos:station:wmo:42045:1,2011-04-02T06:00:00Z,26.2168,-96.4998,4.0,3.955919615,168.0369863,4.63,'11111222,11111222,11111222' 
TABS,ioos:station:wmo:42045:1,2011-04-02T06:30:00Z,26.2168,-96.4998,4.0,3.394362974,160.0171507,4.3,'11111222,11111222,11111222' 
TABS,ioos:station:wmo:42045:1,2011-04-02T07:00:00Z,26.2168,-96.4998,4.0,3.594690529,148.6538321,4.36,'11111222,11111222,11111222' 
TABS,ioos:station:wmo:42045:1,2011-04-02T07:30:00Z,26.2168,-96.4998,4.0,4.430011287,143.2597344,5.36,'11111222,11111222,11111222' 
TABS,ioos:station:wmo:42045:1,2011-04-02T08:00:00Z,26.2168,-96.4998,4.0,4.083540131,154.3137276,4.87,'11111222,11111222,11111222' 
TABS,ioos:station:wmo:42045:1,2011-04-02T08:30:00Z,26.2168,-96.4998,4.0,4.472605505,156.1288261,5.28,'11111222,11111222,11111222' 
TABS,ioos:station:wmo:42045:1,2011-04-02T09:00:00Z,26.2168,-96.4998,4.0,5.840154108,158.3992493,6.88,'11111222,11111222,11111222' 
TABS,ioos:station:wmo:42045:1,2011-04-02T09:30:00Z,26.2168,-96.4998,4.0,5.001409801,160.0073632,6.01,'11111222,11111222,11111222' 
TABS,ioos:station:wmo:42045:1,2011-04-02T10:00:00Z,26.2168,-96.4998,4.0,3.910818329,158.5525243,4.88,'11111222,11111222,11111222' 
TABS,ioos:station:wmo:42045:1,2011-04-02T10:30:00Z,26.2168,-96.4998,4.0,3.913489491,164.4369512,4.83,'11111222,11111222,11111222' 
TABS,ioos:station:wmo:42045:1,2011-04-02T11:00:00Z,26.2168,-96.4998,4.0,4.344974108,161.481905,5.58,'11111222,11111222,11111222' 
TABS,ioos:station:wmo:42045:1,2011-04-02T11:30:00Z,26.2168,-96.4998,4.0,5.285640926,159.1650959,6.62,'11111222,11111222,11111222' 
TABS,ioos:station:wmo:42045:1,2011-04-02T12:00:00Z,26.2168,-96.4998,4.0,3.972467747,164.0746636,4.71,'11111222,11111222,11111222' 
TABS,ioos:station:wmo:42045:1,2011-04-02T12:30:00Z,26.2168,-96.4998,4.0,3.557105565,155.2363777,4.29,'11111222,11111222,11111222' 
TABS,ioos:station:wmo:42045:1,2011-04-02T13:00:00Z,26.2168,-96.4998,4.0,4.098389928,155.1860715,4.98,'11111222,11111222,11111222' 
TABS,ioos:station:wmo:42045:1,2011-04-02T13:30:00Z,26.2168,-96.4998,4.0,3.434603325,153.3606177,4.44,'11111222,11111222,11111222' 
TABS,ioos:station:wmo:42045:1,2011-04-02T14:00:00Z,26.2168,-96.4998,4.0,4.423900993,156.2744807,5.55,'11111222,11111222,11111222' 
TABS,ioos:station:wmo:42045:1,2011-04-02T14:30:00Z,26.2168,-96.4998,4.0,3.68620401,140.393744,4.42,'11111222,11111222,11111222' 
TABS,ioos:station:wmo:42045:1,2011-04-02T15:00:00Z,26.2168,-96.4998,4.0,3.459378557,136.7572999,4.1,'11111222,11111222,11111222' 
TABS,ioos:station:wmo:42045:1,2011-04-02T15:30:00Z,26.2168,-96.4998,4.0,3.022333536,132.4525413,3.65,'11111222,11111222,11111222' 
TABS,ioos:station:wmo:42045:1,2011-04-02T16:00:00Z,26.2168,-96.4998,4.0,2.628802009,113.5423835,3.1,'11111222,11111222,11111222' 
TABS,ioos:station:wmo:42045:1,2011-04-02T16:30:00Z,26.2168,-96.4998,4.0,2.991738625,96.91163187,3.63,'11111222,11111222,11111222' 
TABS,ioos:station:wmo:42045:1,2011-04-02T17:00:00Z,26.2168,-96.4998,4.0,3.156263614,95.81937821,3.81,'11111222,11111222,11111222' 
TABS,ioos:station:wmo:42045:1,2011-04-02T17:30:00Z,26.2168,-96.4998,4.0,3.98282563,104.8391368,4.69,'11111222,11111222,11111222' 
TABS,ioos:station:wmo:42045:1,2011-04-02T18:00:00Z,26.2168,-96.4998,4.0,4.088924064,108.8341298,4.92,'11111222,11111222,11111222' 
TABS,ioos:station:wmo:42045:1,2011-04-02T18:30:00Z,26.2168,-96.4998,4.0,4.26232331,112.7753372,5.12,'11111222,11111222,11111222' 
TABS,ioos:station:wmo:42045:1,2011-04-02T19:00:00Z,26.2168,-96.4998,4.0,4.357212412,106.3973437,5.41,'11111222,11111222,11111222' 
TABS,ioos:station:wmo:42045:1,2011-04-02T19:30:00Z,26.2168,-96.4998,4.0,4.904079934,110.2829326,5.7,'11111222,11111222,11111222' 
TABS,ioos:station:wmo:42045:1,2011-04-02T20:00:00Z,26.2168,-96.4998,4.0,4.904416377,111.2811215,6.05,'11111222,11111222,11111222' 
TABS,ioos:station:wmo:42045:1,2011-04-02T20:30:00Z,26.2168,-96.4998,4.0,5.113296393,115.1120265,5.9,'11111222,11111222,11111222' 
TABS,ioos:station:wmo:42045:1,2011-04-02T21:00:00Z,26.2168,-96.4998,4.0,5.880493177,119.6606367,6.69,'11111222,11111222,11111222' 
TABS,ioos:station:wmo:42045:1,2011-04-02T21:30:00Z,26.2168,-96.4998,4.0,5.773820226,119.8067747,6.67,'11111222,11111222,11111222' 
TABS,ioos:station:wmo:42045:1,2011-04-02T22:00:00Z,26.2168,-96.4998,4.0,5.567476987,118.7750783,6.51,'11111222,11111222,11111222' 
TABS,ioos:station:wmo:42045:1,2011-04-02T22:30:00Z,26.2168,-96.4998,4.0,5.849529896,114.3308299,6.95,'11111222,11111222,11111222' 
TABS,ioos:station:wmo:42045:1,2011-04-02T23:00:00Z,26.2168,-96.4998,4.0,6.028283338,114.3971228,7.16,'11111222,11111222,11111222' 
TABS,ioos:station:wmo:42045:1,2011-04-02T23:30:00Z,26.2168,-96.4998,4.0,6.158327695,116.1077203,7.17,'11111222,11111222,11111222' 
TABS,ioos:station:wmo:42045:1,2011-04-03T00:00:00Z,26.2168,-96.4998,4.0,6.061229248,115.2970789,7.33,'11111222,11111222,11111222' 
TABS,ioos:station:wmo:42045:1,2011-04-03T00:30:00Z,26.2168,-96.4998,4.0,6.37753087,116.0430939,7.35,'11111222,11111222,11111222' 
TABS,ioos:station:wmo:42045:1,2011-04-03T01:00:00Z,26.2168,-96.4998,4.0,6.101966896,121.1895505,7.01,'11111222,11111222,11111222' 
TABS,ioos:station:wmo:42045:1,2011-04-03T01:30:00Z,26.2168,-96.4998,4.0,5.808657332,120.9810214,6.84,'11111222,11111222,11111222' 
TABS,ioos:station:wmo:42045:1,2011-04-03T02:00:00Z,26.2168,-96.4998,4.0,6.986529897,125.3282821,7.89,'11111222,11111222,11111222' 
TABS,ioos:station:wmo:42045:1,2011-04-03T02:30:00Z,26.2168,-96.4998,4.0,5.894107227,129.009313,7.09,'11111222,11111222,11111222' 
TABS,ioos:station:wmo:42045:1,2011-04-03T03:00:00Z,26.2168,-96.4998,4.0,5.332504102,133.936593,6.26,'11111222,11111222,11111222' 
TABS,ioos:station:wmo:42045:1,2011-04-03T03:30:00Z,26.2168,-96.4998,4.0,4.820383802,137.6066882,5.65,'11111222,11111222,11111222' 
TABS,ioos:station:wmo:42045:1,2011-04-03T04:00:00Z,26.2168,-96.4998,4.0,6.695169901,131.4277643,7.79,'11111222,11111222,11111222' 
TABS,ioos:station:wmo:42045:1,2011-04-03T04:30:00Z,26.2168,-96.4998,4.0,6.17530566,131.8496066,7.64,'11111222,11111222,11111222' 
TABS,ioos:station:wmo:42045:1,2011-04-03T05:00:00Z,26.2168,-96.4998,4.0,6.251855725,137.9177284,7.22,'11111222,11111222,11111222' 
TABS,ioos:station:wmo:42045:1,2011-04-03T05:30:00Z,26.2168,-96.4998,4.0,6.728632848,136.9876952,7.88,'11111222,11111222,11111222' 
TABS,ioos:station:wmo:42045:1,2011-04-03T06:00:00Z,26.2168,-96.4998,4.0,6.743589549,141.2608785,7.91,'11111222,11111222,11111222' 
TABS,ioos:station:wmo:42045:1,2011-04-03T06:30:00Z,26.2168,-96.4998,4.0,7.012503119,143.8167373,8.45,'11111222,11111222,11111222' 
TABS,ioos:station:wmo:42045:1,2011-04-03T07:00:00Z,26.2168,-96.4998,4.0,7.001978292,145.0619008,8.2,'11111222,11111222,11111222' 
TABS,ioos:station:wmo:42045:1,2011-04-03T07:30:00Z,26.2168,-96.4998,4.0,6.130130504,142.7565339,7.14,'11111222,11111222,11111222' 
TABS,ioos:station:wmo:42045:1,2011-04-03T08:00:00Z,26.2168,-96.4998,4.0,5.996065377,142.8628429,7.01,'11111222,11111222,11111222' 
TABS,ioos:station:wmo:42045:1,2011-04-03T08:30:00Z,26.2168,-96.4998,4.0,5.622259332,143.6807138,6.89,'11111222,11111222,11111222' 
TABS,ioos:station:wmo:42045:1,2011-04-03T09:00:00Z,26.2168,-96.4998,4.0,4.622812996,139.2108042,5.66,'11111222,11111222,11111222' 
TABS,ioos:station:wmo:42045:1,2011-04-03T09:30:00Z,26.2168,-96.4998,4.0,3.489828076,132.3292304,4.35,'11111222,11111222,11111222' 
TABS,ioos:station:wmo:42045:1,2011-04-03T10:00:00Z,26.2168,-96.4998,4.0,3.879845358,149.9989621,4.54,'11111222,11111222,11111222' 
TABS,ioos:station:wmo:42045:1,2011-04-03T10:30:00Z,26.2168,-96.4998,4.0,3.310060422,143.4765921,4.12,'11111222,11111222,11111222' 
TABS,ioos:station:wmo:42045:1,2011-04-03T11:00:00Z,26.2168,-96.4998,4.0,2.842885858,134.1452203,3.76,'11111222,11111222,11111222' 
TABS,ioos:station:wmo:42045:1,2011-04-03T11:30:00Z,26.2168,-96.4998,4.0,3.569103529,148.4032989,4.23,'11111222,11111222,11111222' 
TABS,ioos:station:wmo:42045:1,2011-04-03T12:00:00Z,26.2168,-96.4998,4.0,3.439491241,150.3793704,4.28,'11111222,11111222,11111222' 
TABS,ioos:station:wmo:42045:1,2011-04-03T12:30:00Z,26.2168,-96.4998,4.0,3.485541565,157.924128,4.23,'11111222,11111222,11111222' 
TABS,ioos:station:wmo:42045:1,2011-04-03T13:00:00Z,26.2168,-96.4998,4.0,4.104643712,159.3135135,4.96,'11111222,11111222,11111222' 
TABS,ioos:station:wmo:42045:1,2011-04-03T13:30:00Z,26.2168,-96.4998,4.0,4.006557126,155.9942177,4.96,'11111222,11111222,11111222' 
TABS,ioos:station:wmo:42045:1,2011-04-03T14:00:00Z,26.2168,-96.4998,4.0,4.46153561,147.9132262,5.45,'11111222,11111222,11111222' 
TABS,ioos:station:wmo:42045:1,2011-04-03T14:30:00Z,26.2168,-96.4998,4.0,6.226427547,147.9949021,7.57,'11111222,11111222,11111222' 
TABS,ioos:station:wmo:42045:1,2011-04-03T15:00:00Z,26.2168,-96.4998,4.0,6.337586291,152.6670125,7.56,'11111222,11111222,11111222' 
TABS,ioos:station:wmo:42045:1,2011-04-03T15:30:00Z,26.2168,-96.4998,4.0,7.506830223,156.6112573,8.96,'11111222,11111222,11111222' 
TABS,ioos:station:wmo:42045:1,2011-04-03T16:00:00Z,26.2168,-96.4998,4.0,7.46617037,161.735177,9.25,'11111222,11111222,11111222' 
TABS,ioos:station:wmo:42045:1,2011-04-03T16:30:00Z,26.2168,-96.4998,4.0,3.432375271,157.0208608,4.79,'11111222,11111222,11111222' 
TABS,ioos:station:wmo:42045:1,2011-04-03T17:00:00Z,26.2168,-96.4998,4.0,5.559721216,164.989168,7.12,'11111222,11111222,11111222' 
TABS,ioos:station:wmo:42045:1,2011-04-03T17:30:00Z,26.2168,-96.4998,4.0,5.47982664,167.0291348,6.6,'11111222,11111222,11111222' 
TABS,ioos:station:wmo:42045:1,2011-04-03T18:00:00Z,26.2168,-96.4998,4.0,5.18541223,165.9372011,6.21,'11111222,11111222,11111222' 
TABS,ioos:station:wmo:42045:1,2011-04-03T18:30:00Z,26.2168,-96.4998,4.0,4.795518741,170.5182684,5.7,'11111222,11111222,11111222' 
TABS,ioos:station:wmo:42045:1,2011-04-03T19:00:00Z,26.2168,-96.4998,4.0,4.955017659,166.1042238,6.16,'11111222,11111222,11111222' 
TABS,ioos:station:wmo:42045:1,2011-04-03T19:30:00Z,26.2168,-96.4998,4.0,5.374988372,166.662062,6.23,'11111222,11111222,11111222' 
TABS,ioos:station:wmo:42045:1,2011-04-03T20:00:00Z,26.2168,-96.4998,4.0,5.585499082,162.6033908,6.65,'11111222,11111222,11111222' 
TABS,ioos:station:wmo:42045:1,2011-04-03T20:30:00Z,26.2168,-96.4998,4.0,4.984826978,159.2020636,5.86,'11111222,11111222,11111222' 
TABS,ioos:station:wmo:42045:1,2011-04-03T21:00:00Z,26.2168,-96.4998,4.0,4.259448321,151.6904104,5.34,'11111222,11111222,11111222' 
TABS,ioos:station:wmo:42045:1,2011-04-03T21:30:00Z,26.2168,-96.4998,4.0,6.836987641,148.0304343,8.27,'11111222,11111222,11111222' 
TABS,ioos:station:wmo:42045:1,2011-04-03T22:00:00Z,26.2168,-96.4998,4.0,6.112233634,149.1972881,7.14,'11111222,11111222,11111222' 
TABS,ioos:station:wmo:42045:1,2011-04-03T22:30:00Z,26.2168,-96.4998,4.0,6.45031007,150.971557,7.68,'11111222,11111222,11111222' 
TABS,ioos:station:wmo:42045:1,2011-04-03T23:00:00Z,26.2168,-96.4998,4.0,6.720386894,148.0129764,7.94,'11111222,11111222,11111222' 
TABS,ioos:station:wmo:42045:1,2011-04-03T23:30:00Z,26.2168,-96.4998,4.0,6.151747719,146.6718666,7.44,'11111222,11111222,11111222' 
TABS,ioos:station:wmo:42045:1,2011-04-04T00:00:00Z,26.2168,-96.4998,4.0,6.550366402,149.9516186,8.14,'11111222,11111222,11111222' 
TABS,ioos:station:wmo:42045:1,2011-04-04T00:30:00Z,26.2168,-96.4998,4.0,7.139866946,149.6283171,8.71,'11111222,11111222,11111222' 
TABS,ioos:station:wmo:42045:1,2011-04-04T01:00:00Z,26.2168,-96.4998,4.0,7.702759246,149.8402201,9.23,'11111222,11111222,11111222' 
TABS,ioos:station:wmo:42045:1,2011-04-04T01:30:00Z,26.2168,-96.4998,4.0,8.304197734,151.6761559,10.14,'11111222,11111222,11111222' 
TABS,ioos:station:wmo:42045:1,2011-04-04T02:00:00Z,26.2168,-96.4998,4.0,8.989688537,152.7226257,10.6,'11111222,11111222,11111222' 
TABS,ioos:station:wmo:42045:1,2011-04-04T02:30:00Z,26.2168,-96.4998,4.0,9.042577066,155.2207024,10.98,'11111222,11111222,11111222' 
TABS,ioos:station:wmo:42045:1,2011-04-04T03:00:00Z,26.2168,-96.4998,4.0,8.652080675,163.1360897,10.94,'11111222,11111222,11111222' 
TABS,ioos:station:wmo:42045:1,2011-04-04T03:30:00Z,26.2168,-96.4998,4.0,8.507132302,158.7741654,9.9,'11111222,11111222,11111222' 
TABS,ioos:station:wmo:42045:1,2011-04-04T04:00:00Z,26.2168,-96.4998,4.0,9.35034224,156.8901802,11.39,'11111222,11111222,11111222' 
TABS,ioos:station:wmo:42045:1,2011-04-04T04:30:00Z,26.2168,-96.4998,4.0,9.45605626,160.7988535,11.01,'11111222,11111222,11111222' 
TABS,ioos:station:wmo:42045:1,2011-04-04T05:00:00Z,26.2168,-96.4998,4.0,9.512623192,167.8634144,11.58,'11111222,11111222,11111222' 
TABS,ioos:station:wmo:42045:1,2011-04-04T05:30:00Z,26.2168,-96.4998,4.0,9.757094855,175.0025025,11.74,'11111222,11111222,11111222' 
TABS,ioos:station:wmo:42045:1,2011-04-04T06:00:00Z,26.2168,-96.4998,4.0,9.190065288,177.3183877,10.85,'11111222,11111222,11111222' 
TABS,ioos:station:wmo:42045:1,2011-04-04T06:30:00Z,26.2168,-96.4998,4.0,8.895268405,175.6805574,10.67,'11111222,11111222,11111222' 
TABS,ioos:station:wmo:42045:1,2011-04-04T07:00:00Z,26.2168,-96.4998,4.0,8.155151746,175.4991345,9.63,'11111222,11111222,11111222' 
TABS,ioos:station:wmo:42045:1,2011-04-04T07:30:00Z,26.2168,-96.4998,4.0,9.252615846,178.6377601,11.23,'11111222,11111222,11111222' 
TABS,ioos:station:wmo:42045:1,2011-04-04T08:00:00Z,26.2168,-96.4998,4.0,8.475806746,174.0407547,9.93,'11111222,11111222,11111222' 
TABS,ioos:station:wmo:42045:1,2011-04-04T08:30:00Z,26.2168,-96.4998,4.0,8.062834489,174.0916458,10.29,'11111222,11111222,11111222' 
TABS,ioos:station:wmo:42045:1,2011-04-04T09:00:00Z,26.2168,-96.4998,4.0,7.323066298,173.0984142,8.95,'11111222,11111222,11111222' 
TABS,ioos:station:wmo:42045:1,2011-04-04T09:30:00Z,26.2168,-96.4998,4.0,6.752962313,172.1701016,7.88,'11111222,11111222,11111222' 
TABS,ioos:station:wmo:42045:1,2011-04-04T10:00:00Z,26.2168,-96.4998,4.0,7.837148716,170.0811895,9.62,'11111222,11111222,11111222' 
TABS,ioos:station:wmo:42045:1,2011-04-04T10:30:00Z,26.2168,-96.4998,4.0,7.887838741,168.8897415,9.74,'11111222,11111222,11111222' 
TABS,ioos:station:wmo:42045:1,2011-04-04T11:00:00Z,26.2168,-96.4998,4.0,7.785968148,165.2679187,9.23,'11111222,11111222,11111222' 
TABS,ioos:station:wmo:42045:1,2011-04-04T11:30:00Z,26.2168,-96.4998,4.0,8.639351828,161.6491929,10.45,'11111222,11111222,11111222' 
TABS,ioos:station:wmo:42045:1,2011-04-04T12:00:00Z,26.2168,-96.4998,4.0,8.827168289,162.5300632,10.43,'11111222,11111222,11111222' 
TABS,ioos:station:wmo:42045:1,2011-04-04T12:30:00Z,26.2168,-96.4998,4.0,8.760741978,167.407589,10.54,'11111222,11111222,11111222' 
TABS,ioos:station:wmo:42045:1,2011-04-04T13:00:00Z,26.2168,-96.4998,4.0,9.090242021,168.2576595,10.95,'11111222,11111222,11111222' 
TABS,ioos:station:wmo:42045:1,2011-04-04T13:30:00Z,26.2168,-96.4998,4.0,9.798163093,169.0572851,12.19,'11111222,11111222,11111222' 
TABS,ioos:station:wmo:42045:1,2011-04-04T14:00:00Z,26.2168,-96.4998,4.0,10.0634189,167.3726253,12.05,'11111222,11111222,11111222' 
TABS,ioos:station:wmo:42045:1,2011-04-04T14:30:00Z,26.2168,-96.4998,4.0,9.793431472,167.737951,12.17,'11111222,11111222,11111222' 
TABS,ioos:station:wmo:42045:1,2011-04-04T15:00:00Z,26.2168,-96.4998,4.0,10.16437898,174.0708818,12.67,'11111222,11111222,11111222' 
TABS,ioos:station:wmo:42045:1,2011-04-04T15:30:00Z,26.2168,-96.4998,4.0,9.241304021,175.2829189,10.83,'11111222,11111222,11111222' 
TABS,ioos:station:wmo:42045:1,2011-04-04T16:00:00Z,26.2168,-96.4998,4.0,8.191196494,180.9795278,9.98,'11111222,11111222,11111222' 
TABS,ioos:station:wmo:42045:1,2011-04-04T16:30:00Z,26.2168,-96.4998,4.0,8.167080262,182.3861489,10.65,'11111222,11111222,11111222' 
TABS,ioos:station:wmo:42045:1,2011-04-04T17:00:00Z,26.2168,-96.4998,4.0,8.12759497,194.463865,9.37,'11111222,11111222,11111222' 
TABS,ioos:station:wmo:42045:1,2011-04-04T17:30:00Z,26.2168,-96.4998,4.0,8.39948808,193.4242761,10.14,'11111222,11111222,11111222' 
TABS,ioos:station:wmo:42045:1,2011-04-04T18:00:00Z,26.2168,-96.4998,4.0,7.608429536,193.7624561,9.09,'11111222,11111222,11111222' 
TABS,ioos:station:wmo:42045:1,2011-04-04T18:30:00Z,26.2168,-96.4998,4.0,6.856332839,200.3116903,8.44,'11111222,11111222,11111222' 